Regional Weather Roundup
Issued by NWS

Home | Current Version | Previous Version | Graphics & Text | Print | Product List | Glossary On
Versions: 1 2 3 4 5 6 7 8 9 10 11 12 13 14 15 16 17 18 19 20 21 22 23 24 25 26 27 28 29 30 31 32 33 34 35 36 37 38 39 40 41 42 43 44 45 46 47 48 49 50
000
ASUS43 KLOT 190903
RWRIL

ILLINOIS REGIONAL WEATHER ROUNDUP
NATIONAL WEATHER SERVICE CHICAGO/ROMEOVILLE IL
300 AM CST FRI JAN 19 2018

NOTE: "FAIR" INDICATES FEW OR NO CLOUDS BELOW 12,000 FEET WITH NO
SIGNIFICANT WEATHER AND/OR OBSTRUCTIONS TO VISIBILITY.

* THESE STATIONS ARE NOT UNDER NWS QUALITY CONTROL. THEY ALSO MAY NOT
  REPORT WEATHER SUCH AS PRECIPITATION OR FOG.

ILZ001-002-007-009-015-016-024-191000-
NORTHWEST ILLINOIS

CITY           SKY/WX    TMP DP  RH WIND       PRES   REMARKS
MOLINE         FAIR      30  20  66 SW6       29.93S WCI  24
STERLING*      FAIR      25  20  81 SW5       29.94S WCI  19
SAVANNA*       FAIR      26  19  75 S6        29.92S WCI  20
$$

ILZ003-004-008-010-011-017-018-191000-
NORTH CENTRAL ILLINOIS

CITY           SKY/WX    TMP DP  RH WIND       PRES   REMARKS
ROCKFORD       FAIR      23  17  78 S7        29.93S WCI  15
FREEPORT*      FAIR      25  19  76 SW13      29.91S WCI  14
ROCHELLE*      FAIR      24  19  81 S7        29.94R WCI  15
DE KALB*       FAIR      27  20  75 SW13      29.93F WCI  16
PERU*          FAIR      29  19  65 SW14      29.97S WCI  19
$$

ILZ005-006-012>014-019>023-191000-
NORTHEAST ILLINOIS

CITY           SKY/WX    TMP DP  RH WIND       PRES   REMARKS
CHICAGO-OHARE  FAIR      29  18  63 SW13      29.93S WCI  19
CHICAGO-MIDWAY FAIR      28  19  69 SW12      29.95S WCI  18
AURORA         FAIR      24  17  74 S8        29.95S WCI  15
LANSING*       FAIR      23  19  85 SW9       29.98F WCI  13
JOLIET*        FAIR      28  21  72 SW8       29.98S WCI  20
WAUKEGAN       FAIR      29  19  66 SW13G20   29.88S WCI  19
DUPAGE AIRPORT FAIR      22  17  81 S8        29.93S WCI  12
KANKAKEE*      FAIR     N/A N/A N/A SW13G18   30.02S
WHEELING       FAIR      30  20  66 SW10      29.94S WCI  21
MORRIS*        FAIR      26  19  76 S10       29.97S WCI  15
ROMEOVILLE*    FAIR      26  20  76 SW13      29.96S WCI  15
NORTHERLY ISL    N/A     28  19  69 SW6         N/A  WCI  22
$$

LMZ740>746-191000-
SOUTHERN LAKE MICHIGAN

STATION/POSITION SKY/WX   TEMP    WIND        PRES    VSBY  WAVE
                          AIR SEA DIR/SP/G                  HT/PER
                          (F)     (DEG/KT/KT) (MB)    (MI)  (FT/S)
HARRISON CRIB              31     200/ 21/ 25   N/A
BURNHAM HARBOR             28     220/  6/ 12   N/A
CALUMET HARBOR             28     210/ 10/ 16 1013.8R
BURNS HARBOR               28     210/ 13/ 17 1015.6S
MICHIGAN CITY              29     190/ 17/ 21   N/A
$$

ILZ025>027-034>036-040-047-049-050-058-095>099-191000-
WEST-CENTRAL ILLINOIS

CITY           SKY/WX    TMP DP  RH WIND       PRES   REMARKS
QUINCY         CLOUDY    30  19  63 S14       30.00F WCI  19
GALESBURG*     FAIR      30  23  74 S16       29.96S WCI  19
MACOMB*        CLOUDY    32  22  66 SW15      30.00S WCI  22
JACKSONVILLE*  CLOUDY    31  16  53 S10       30.04F WCI  22
PITTSFIELD*    CLOUDY    35  18  49 S10       30.04F WCI  27
$$

ILZ028>032-037-038-041>044-048-051>054-059>061-191000-
CENTRAL ILLINOIS

CITY           SKY/WX    TMP DP  RH WIND       PRES   REMARKS
BLOOMINGTON    FAIR      26  19  74 SW15      30.02S WCI  14
DECATUR        FAIR      25  20  81 SW16      30.07F WCI  12
PEORIA         FAIR      28  19  69 S13       30.00F WCI  17
LACON*         FAIR      30  20  66 SW10      29.97F WCI  21
LINCOLN*       FAIR      26  20  77 S5        30.04F WCI  21
SPRINGFIELD    FAIR      30  18  60 S15       30.05F WCI  19
TAYLORVILLE    FAIR      24  18  80 S10       30.09S WCI  13
$$

ILZ033-039-045-046-055>057-062-063-191000-
EAST-CENTRAL ILLINOIS

CITY           SKY/WX    TMP DP  RH WIND       PRES   REMARKS
CHAMPAIGN      FAIR      21  16  81 S15       30.06F WCI   8
DANVILLE*      FAIR      22  16  75 SW15      30.05S WCI   9
RANTOUL*       FAIR      26  19  77 S13G20    30.05F WCI  14
MATTOON        FAIR      23  17  78 S15       30.09F WCI  10
PARIS*         FAIR      22  17  78 S16       30.12S WCI   9
$$

ILZ079-100>102-191000-
SOUTHWEST ILLINOIS

CITY           SKY/WX    TMP DP  RH WIND       PRES   REMARKS
ALTON          CLOUDY    27  18  70 S12       30.12R WCI  16
BELLEVILLE     CLOUDY    25  16  68 SW9       30.13S WCI  16
CAHOKIA*       CLOUDY    24  14  65 S5        30.13S WCI  18
SPARTA*        CLOUDY    25  19  77 S10       30.17F WCI  15
$$

ILZ064>066-069>071-074>076-080>082-084>086-088>090-092>094-191000-
SOUTH-CENTRAL ILLINOIS

CITY           SKY/WX    TMP DP  RH WIND       PRES   REMARKS
CARBONDALE     FAIR      24  17  74 SW12      30.20F WCI  13
CAIRO*         FAIR      13  11  92 CALM      30.26F
EFFINGHAM*     FAIR      25  17  73 S7        30.16S WCI  17
MARION         FAIR      21  15  78 S7        30.21F WCI  12
MT. VERNON     FAIR      24  17  74 SW10      30.19S WCI  14
CENTRALIA*     CLOUDY    25  19  77 S12       30.15F WCI  14
SALEM*         FAIR      26  17  68 S9        30.15F WCI  17
METROPOLIS*    FAIR      16  11  81 S3        30.27F
$$

ILZ067-068-072-073-078-083-087-091-191000-
SOUTHEAST ILLINOIS

CITY           SKY/WX    TMP DP  RH WIND       PRES   REMARKS
LAWRENCEVILLE  FAIR      15   9  76 S7        30.20S WCI   5
FLORA*         FAIR      24  17  74 S12       30.18S WCI  12
FAIRFIELD*     FAIR      23  15  73 S5        30.19S WCI  17
HARRISBURG*    FAIR      23  15  73 SW7       30.22F WCI  14
ROBINSON*      FAIR      21  13  71 SW8       30.18S WCI  11
CARMI*         FAIR      24  15  68 S12       30.20F WCI  13
$$

ABBREVIATIONS USED IN REMARKS
   TC - TEMPERATURE IN CELSIUS
  WCI - WIND CHILL INDEX
   HX - HEAT INDEX
  VSB - VISIBILITY
$$




USA.gov is the U.S. government's official web portal to all federal, state and local government web resources and services.